CDT,Max TemperatureF,Mean TemperatureF,Min TemperatureF,Max Dew PointF,MeanDew PointF,Min DewpointF,Max Humidity, Mean Humidity, Min Humidity, Max Sea Level PressureIn, Mean Sea Level PressureIn, Min Sea Level PressureIn, Max VisibilityMiles, Mean VisibilityMiles, Min VisibilityMiles, Max Wind SpeedMPH, Mean Wind SpeedMPH, Max Gust SpeedMPH,PrecipitationIn, CloudCover, Events, WindDirDegrees
2012-10-1,73,69,65,64,61,58,93,75,60,29.78,29.72,29.67,10,10,3,13,6,22,0.01,5,,312
2012-10-2,79,72,64,65,57,54,100,57,44,29.99,29.89,29.77,10,8,0,4,0,,0.01,1,Fog,295
2012-10-3,83,76,68,68,61,57,99,58,41,30.12,30.05,29.99,10,8,2,7,1,,0.00,0,,170
2012-10-4,86,74,63,66,59,39,96,50,31,30.24,30.17,30.12,10,8,0,6,0,,0.00,1,Fog,190
2012-10-5,87,80,73,74,67,64,97,58,46,30.16,30.09,29.99,10,9,5,9,2,,0.00,1,,190
2012-10-6,58,54,51,54,50,46,100,84,74,30.20,30.14,30.01,10,10,10,9,4,18,0.00,8,,7
2012-10-7,64,56,49,51,46,38,100,71,37,30.28,30.20,30.15,10,10,10,9,3,17,0.00,6,,18
2012-10-8,64,57,50,54,49,46,94,72,57,30.27,30.21,30.15,10,10,5,7,1,,0.00,6,Rain,13
2012-10-9,75,67,59,67,57,51,100,68,48,30.17,30.09,29.98,10,9,5,7,1,,0.00,1,,189
2012-10-10,78,71,64,71,62,54,100,71,55,30.21,30.15,30.05,10,10,7,8,1,,0.00,6,,56
2012-10-11,88,73,58,72,61,52,97,70,52,30.24,30.19,30.15,10,10,7,12,2,,0.00,3,,192
2012-10-12,88,82,73,71,68,65,93,61,47,30.28,30.21,30.17,10,8,2,4,0,,0.00,0,,145
2012-10-13,87,82,75,77,69,67,99,66,52,30.21,30.12,30.01,10,8,3,13,3,20,0.00,1,,175
2012-10-14,85,80,75,80,71,68,99,77,65,30.13,30.01,29.95,10,8,1,14,7,23,0.00,4,Rain-Thunderstorm,198
2012-10-15,81,72,62,61,54,50,91,50,33,30.10,30.04,29.98,10,10,2,7,1,,0.00,0,,59
2012-10-16,76,70,63,62,59,57,88,69,55,30.02,29.93,29.83,10,10,7,4,0,,0.00,0,,170
2012-10-17,84,72,61,72,65,54,100,69,37,29.83,29.72,29.60,10,10,10,15,5,24,0.00,2,Rain,187
2012-10-18,79,66,53,59,46,37,84,48,22,29.94,29.87,29.71,10,9,1,13,3,18,0.00,0,,289
2012-10-19,77,64,50,48,41,36,81,49,23,29.93,29.89,29.85,10,10,7,16,4,29,0.00,0,,264
2012-10-20,83,65,47,57,49,42,99,53,25,30.00,29.94,29.90,10,10,10,8,1,,0.00,0,,197
2012-10-21,86,74,63,64,56,51,74,58,36,30.07,30.02,29.96,10,10,10,12,2,20,0.00,3,,178
2012-10-22,86,74,63,64,58,53,85,56,32,30.14,30.07,30.03,10,10,3,8,3,,0.00,0,,165
2012-10-23,82,74,65,69,64,59,94,68,54,30.11,30.04,30.00,10,9,0,8,1,,0.00,2,Fog,183
2012-10-24,87,77,67,68,64,62,100,64,43,30.11,30.03,29.97,10,8,0,9,1,,0.00,2,Fog,175
2012-10-25,82,75,68,73,64,47,100,77,31,30.01,29.96,29.92,10,9,0,10,1,,0.00,2,Fog,176
2012-10-26,,,,,,,,,,30.22,30.11,29.95,10,9,3,9,3,18,0.00,7,Rain-Thunderstorm,355
2012-10-27,,,,,,,,,,30.21,30.15,30.09,10,10,10,12,4,20,0.00,1,,340
2012-10-28,,,,,,,,,,30.22,30.18,30.15,10,10,10,13,2,20,0.00,0,,335
2012-10-29,,,,,,,,,,30.30,30.23,30.15,10,10,7,9,1,,0.00,0,,351
2012-10-30,,,,,,,,,,30.15,30.06,29.99,10,10,7,9,1,,0.00,0,,268
2012-10-31,,,,,,,,,,30.02,29.99,29.94,10,10,7,10,1,,0.00,0,,286